Home > Weather > Tarija > Past weeks

Flag for Bolivia Past Weather in Tarija, Bolivia — Yesterday and Last 2 Weeks

Now
55 °F

Partly sunny.


Feels Like: 55 °F
Forecast: 49 / 66 °F
Wind: No wind

Location: Tarija Airport

Current Time: Jun 25, 2016 at 1:58:09 PM

Latest Report: Jun 25, 2016 at 1:00 PM


Visibility: N/A

Pressure: 30.01 "Hg (23.99 "Hg at 1874m altitude)

Humidity: 72%

Dew Point: 46 °F

Location of TarijaLocation

Past Weather in Tarija — Graph

°F

Tarija Temperature Yesterday

Maximum temperature yesterday: 70 °F (at 2:00 PM)
Minimum temperature yesterday: 36 °F (at 6:00 AM)
Average temperature yesterday: 52 °F

High & Low Weather Summary for the Past Weeks

 TemperatureHumidityPressure
High79 °F (Jun 14, 4:00 PM)100% (Jun 12, 6:00 AM)30.42 "Hg (Jun 12, 6:00 AM)
Low30 °F (Jun 22, 7:00 AM)24% (Jun 22, 3:00 PM)29.83 "Hg (Jun 24, 3:00 PM)
Average52 °F68%30.21 "Hg
* Reported Jun 10 12:00 PM — Jun 25 12:00 PM, Tarija, Weather by CustomWeather, © 2016

Note: Actual official high and low records may vary slightly from our data, if they occured in-between our weather recording intervals... More about our weather records

Advertising

Tarija Weather History for the Previous 24 Hours

Scroll right to see more
 ConditionsComfort  
Time TempWeatherWind HumidityBarometerVisibility
12:00 PM
Sat, Jun 25
54 °FMostly cloudy.No wind77%30.07 "HgN/A
11:00 AM52 °FMostly cloudy.5 mph82%30.09 "HgN/A
10:00 AM52 °FMostly cloudy.No wind82%30.12 "Hg5 mi
9:00 AM50 °FMostly cloudy.No wind88%30.12 "Hg5 mi
8:00 AM48 °FMostly cloudy.No wind87%30.12 "HgN/A
7:00 AM46 °FMostly cloudy.No wind87%30.09 "HgN/A
6:00 AM48 °FOvercast.No wind87%30.09 "HgN/A
1:00 AM45 °FMostly cloudy.No wind93%30.12 "HgN/A
12:00 AM45 °FMostly cloudy.No wind93%30.12 "HgN/A
11:00 PM
Fri, Jun 24
45 °FMostly cloudy.No wind93%30.12 "HgN/A
10:00 PM46 °FMostly cloudy.No wind93%30.15 "HgN/A
9:00 PM48 °FPassing clouds.No wind87%30.12 "HgN/A
8:00 PM50 °FPassing clouds.No wind82%30.09 "HgN/A
7:00 PM52 °FMostly cloudy.6 mph77%30.04 "HgN/A
6:00 PM54 °FClear.9 mph77%29.98 "HgN/A
5:00 PM59 °FClear.17 mph59%29.92 "HgN/A
4:00 PM66 °FClear.7 mph46%29.86 "HgN/A
3:00 PM70 °FClear.7 mph43%29.83 "HgN/A
2:00 PM70 °FClear.7 mph38%29.86 "HgN/A
1:00 PM66 °FClear.5 mph46%29.89 "HgN/A
Weather by CustomWeather, © 2016

See weather overviewHow to use our weather pages